Temp
13 14 15 16 19 19 21 20 19 19 19 19 18 20 22 21 23 22 16 16 16 16 16 16 17 17 17 17 17 17 17 17 17 16 16 16 16 16 17 17 16 15 16 15 14 15 14 15 16
13 14 14 16 19 20 22 19 18 19 18 17 18 19 20 22 18 17 16 17 16 16 16 16 17 17 17 17 17 17 17 17 17 16 17 16 16 16 16 16 15 14 15 14 14 15 15 16 16
13 14 17 19 19 21 21 18 19 17 16 18 19 18 19 18 16 15 15 16 16 16 17 16 17 17 17 17 17 17 17 17 17 17 17 16 16 16 16 16 15 15 15 15 15 16 16 16 16
13 14 14 18 19 18 18 17 17 17 17 17 17 19 15 15 15 16 17 17 16 16 16 16 17 17 17 17 17 17 17 17 17 16 17 16 16 16 15 15 15 15 16 16 17 16 16 16 16
13 15 17 17 18 17 17 16 16 18 17 17 17 18 17 14 15 16 17 17 16 16 15 16 16 16 16 16 16 16 16 16 17 16 16 16 15 15 15 15 15 15 16 16 17 16 16 16 16
14 14 17 18 18 16 16 15 16 17 17 17 17 17 17 15 16 16 16 16 16 16 16 15 16 16 16 16 16 16 16 16 16 16 16 16 16 15 15 15 15 15 16 16 16 16 15 15 15
15 16 17 16 17 16 16 13 16 17 17 17 15 18 17 15 15 15 15 15 15 16 16 15 15 16 16 16 16 16 16 16 16 16 16 16 15 15 15 15 15 15 16 16 16 16 15 15 15
12 15 14 16 17 16 13 13 12 14 17 13 14 18 18 14 15 15 15 15 15 15 15 16 15 15 16 16 16 16 16 16 16 16 15 15 15 15 15 15 15 15 16 16 16 16 15 15 15
12 15 16 16 14 14 12 14 11 11 12 13 14 14 14 14 15 15 15 14 15 15 15 15 15 15 15 14 15 16 16 16 15 16 15 15 15 14 15 14 15 15 15 16 16 16 15 15 15
13 14 15 12 12 13 11 11 11 12 13 14 13 14 13 13 13 14 14 15 15 14 15 15 15 15 16 16 15 15 15 15 15 15 14 15 14 14 14 15 15 14 15 16 15 15 15 15 13
10 14 11 10 10 9 10 10 10 12 13 14 14 14 13 12 12 13 14 14 15 15 14 15 15 15 15 16 15 15 15 15 15 14 14 14 14 14 14 15 14 14 14 15 15 15 15 15 12
11 9 9 9 8 8 10 9 10 10 12 12 12 11 10 10 11 11 13 14 14 15 15 14 15 15 15 15 15 15 15 15 15 15 14 14 14 14 14 15 14 14 15 14 13 13 13 13 15
10 9 7 8 7 8 8 9 10 10 10 10 10 9 9 9 10 11 12 13 14 15 15 15 15 15 15 15 15 15 15 15 15 14 14 14 14 13 13 15 14 14 14 14 14 12 12 14 15
8 8 8 8 8 8 8 10 7 12 10 10 9 9 10 10 10 10 11 12 13 14 15 15 14 15 15 15 15 15 15 15 15 15 14 13 13 14 14 14 14 14 14 14 14 14 13 14 14
7 9 9 9 8 9 7 10 9 11 10 10 11 11 10 10 10 10 10 11 12 12 13 14 14 14 15 15 15 15 15 15 15 15 15 15 14 14 13 14 14 13 14 14 14 14 14 13 12
9 9 12 10 9 8 8 13 13 11 10 11 12 11 10 11 11 11 10 11 12 12 12 13 14 14 14 14 15 15 14 14 14 14 14 14 15 14 14 14 14 14 14 14 14 14 13 14 14
10 12 9 10 8 9 9 11 12 11 11 11 11 12 11 11 10 10 10 11 11 12 12 12 12 13 13 13 14 14 14 14 14 14 14 14 14 14 14 14 14 13 14 13 13 13 14 14 14
11 10 10 10 10 9 9 10 11 11 11 11 11 11 11 10 10 9 9 10 11 11 11 11 11 12 12 13 13 13 13 14 13 14 14 14 14 14 14 14 14 14 14 13 13 13 13 13 14
8 8 9 10 10 8 10 10 12 12 12 12 12 11 11 10 9 8 10 10 10 10 11 10 11 11 11 11 11 12 12 13 14 14 14 14 14 14 14 14 14 14 13 13 12 13 12 12 12
7 8 10 10 9 9 11 11 12 12 12 10 10 10 10 9 9 9 9 9 10 10 10 10 10 10 11 10 11 11 12 12 13 14 14 14 14 14 14 14 14 13 12 12 12 12 13 12 12
8 9 9 9 9 11 10 12 12 12 11 10 10 10 9 9 8 8 8 9 10 10 11 11 11 10 10 9 11 10 10 11 13 14 14 15 14 14 14 14 14 13 12 12 12 11 12 12 12
9 9 8 8 8 9 10 9 12 10 11 10 9 9 9 8 7 7 7 8 9 10 11 10 10 10 10 10 9 10 10 11 12 13 14 15 14 14 14 14 13 11 11 11 12 12 12 11 11
9 8 8 8 8 6 9 7 11 10 8 6 6 7 7 7 6 5 6 7 9 10 11 11 10 10 10 10 9 9 11 11 10 11 12 12 13 13 13 13 11 11 11 11 11 11 11 11 11
9 8 9 8 7 7 10 8 10 6 5 5 5 5 5 5 5 5 5 6 8 10 11 11 10 10 10 10 9 9 11 11 11 13 12 12 12 12 12 12 11 10 11 11 11 11 11 11 10
8 7 9 9 8 10 10 7 8 7 6 4 5 4 4 4 3 3 3 5 7 8 10 10 10 11 11 10 10 11 12 12 12 12 12 12 12 12 12 12 12 12 11 11 11 11 11 11 9
9 9 8 9 11 11 10 9 8 7 5 3 4 3 3 3 3 3 4 6 7 8 9 10 10 10 10 10 11 12 11 11 11 12 12 12 11 11 11 11 11 12 11 10 11 10 10 10 9
7 7 8 6 8 8 10 7 8 7 5 4 4 4 3 3 3 3 3 5 6 7 8 10 10 8 9 11 11 10 10 10 11 11 11 11 11 11 10 11 11 11 11 11 10 10 10 9 9
6 7 8 7 9 10 11 8 7 5 5 4 5 4 4 4 3 3 3 5 6 6 7 9 9 10 10 10 10 10 10 11 11 10 9 10 10 10 10 10 10 10 10 10 10 10 10 9 9
7 7 6 7 8 10 11 9 5 5 5 5 7 6 5 3 3 3 3 3 5 7 7 7 7 8 8 9 8 9 10 9 9 9 9 10 9 9 9 9 9 9 9 9 9 9 9 9 9
9 8 9 9 9 9 9 9 7 7 6 5 6 6 5 4 3 3 4 4 4 4 4 5 6 6 7 6 6 8 9 9 9 9 9 9 9 9 9 9 9 9 9 9 9 9 9 9 9
Height
1517 1519 1521 1524 1526 1521 1513 1515 1517 1518 1520 1521 1523 1523 1520 1522 1518 1523 1528 1525 1524 1524 1526 1527 1530 1532 1533 1535 1536 1538 1539 1540 1541 1542 1542 1542 1543 1543 1543 1543 1544 1544 1545 1546 1547 1546 1546 1546 1546
1517 1520 1523 1523 1518 1515 1505 1515 1518 1518 1521 1523 1523 1524 1524 1520 1526 1527 1528 1524 1523 1525 1526 1529 1529 1531 1533 1535 1537 1538 1540 1540 1541 1542 1542 1543 1544 1544 1544 1545 1545 1546 1547 1548 1547 1547 1547 1547 1548
1517 1520 1522 1517 1513 1506 1506 1518 1517 1523 1524 1524 1523 1525 1525 1526 1527 1526 1525 1523 1523 1525 1526 1529 1529 1531 1533 1534 1536 1538 1539 1540 1541 1542 1542 1543 1544 1545 1546 1546 1547 1548 1548 1549 1548 1548 1548 1549 1549
1519 1523 1524 1515 1510 1514 1515 1519 1522 1523 1525 1525 1525 1524 1527 1526 1526 1524 1523 1522 1523 1525 1527 1527 1529 1530 1533 1534 1536 1537 1538 1540 1541 1542 1542 1543 1544 1546 1547 1547 1548 1549 1550 1550 1550 1550 1550 1551 1551
1519 1520 1518 1516 1512 1517 1520 1521 1523 1522 1524 1525 1525 1524 1526 1526 1525 1523 1522 1522 1523 1525 1526 1527 1528 1531 1533 1534 1537 1537 1539 1539 1540 1542 1543 1543 1544 1546 1547 1548 1549 1550 1550 1551 1551 1552 1553 1552 1553
1519 1520 1516 1512 1512 1519 1522 1524 1524 1524 1524 1525 1525 1525 1526 1525 1525 1523 1522 1522 1523 1524 1525 1528 1528 1530 1532 1534 1535 1536 1538 1539 1540 1541 1543 1543 1544 1545 1546 1548 1549 1550 1551 1551 1552 1553 1554 1555 1555
1516 1516 1512 1514 1514 1518 1521 1526 1525 1523 1524 1525 1526 1522 1525 1525 1525 1524 1522 1522 1522 1523 1524 1526 1528 1530 1531 1533 1534 1535 1537 1538 1540 1541 1542 1543 1544 1545 1546 1548 1549 1549 1550 1551 1552 1554 1555 1556 1556
1520 1518 1519 1515 1512 1516 1525 1526 1528 1526 1524 1526 1526 1521 1521 1524 1523 1523 1523 1523 1522 1522 1523 1524 1526 1528 1530 1531 1533 1534 1535 1537 1538 1540 1541 1542 1543 1544 1545 1547 1548 1549 1550 1551 1552 1554 1555 1556 1557
1519 1518 1513 1515 1519 1521 1526 1525 1528 1528 1527 1526 1524 1523 1523 1521 1521 1522 1522 1522 1522 1522 1522 1523 1524 1525 1527 1529 1531 1533 1534 1535 1536 1537 1539 1541 1542 1543 1543 1546 1547 1548 1550 1550 1552 1553 1554 1555 1556
1519 1518 1515 1523 1524 1525 1528 1529 1528 1528 1526 1523 1522 1522 1522 1521 1520 1519 1519 1519 1520 1520 1520 1521 1522 1523 1524 1526 1527 1529 1531 1532 1533 1534 1537 1539 1542 1543 1543 1543 1545 1547 1548 1549 1550 1552 1553 1554 1556
1523 1517 1523 1524 1526 1528 1528 1528 1528 1526 1523 1519 1520 1520 1520 1518 1517 1516 1516 1516 1516 1516 1517 1518 1519 1520 1521 1523 1524 1525 1526 1528 1530 1532 1535 1536 1538 1539 1539 1541 1542 1544 1546 1547 1548 1550 1551 1552 1555
1524 1526 1526 1526 1527 1528 1527 1526 1524 1525 1516 1518 1518 1517 1516 1514 1513 1512 1512 1512 1512 1512 1514 1514 1514 1516 1518 1519 1521 1522 1523 1524 1526 1527 1530 1532 1533 1535 1537 1537 1539 1541 1543 1545 1547 1549 1550 1550 1551
1524 1527 1528 1528 1527 1526 1525 1522 1522 1517 1515 1514 1513 1512 1511 1510 1508 1507 1506 1505 1506 1506 1509 1510 1510 1511 1513 1514 1516 1518 1519 1521 1523 1525 1526 1528 1529 1531 1533 1534 1535 1538 1540 1541 1543 1546 1547 1547 1548
1526 1527 1526 1525 1525 1525 1523 1518 1521 1510 1510 1509 1509 1508 1507 1506 1503 1503 1502 1500 1500 1501 1502 1505 1505 1506 1508 1509 1511 1514 1515 1517 1519 1521 1522 1523 1525 1526 1528 1531 1533 1533 1535 1537 1539 1541 1543 1544 1545
1527 1524 1524 1524 1524 1522 1524 1513 1511 1508 1508 1506 1505 1504 1502 1501 1498 1497 1496 1495 1495 1496 1496 1497 1499 1501 1502 1504 1506 1508 1510 1512 1514 1517 1518 1519 1520 1522 1524 1526 1529 1529 1532 1534 1535 1537 1538 1540 1541
1525 1523 1515 1519 1522 1522 1523 1502 1504 1506 1505 1502 1499 1498 1495 1493 1492 1492 1489 1488 1489 1489 1490 1491 1493 1494 1496 1498 1500 1502 1504 1507 1509 1512 1514 1516 1516 1518 1520 1522 1524 1526 1528 1529 1531 1532 1534 1535 1537
1520 1512 1521 1516 1520 1520 1520 1504 1504 1503 1500 1496 1493 1490 1488 1485 1484 1484 1482 1480 1481 1483 1483 1484 1486 1488 1490 1492 1493 1496 1499 1501 1503 1505 1509 1511 1513 1514 1516 1518 1519 1521 1523 1525 1526 1527 1528 1529 1531
1511 1515 1517 1516 1517 1517 1512 1503 1501 1498 1494 1489 1487 1485 1482 1479 1478 1476 1474 1472 1473 1474 1475 1476 1478 1481 1484 1486 1488 1489 1492 1495 1498 1500 1502 1506 1508 1510 1511 1512 1513 1515 1516 1518 1518 1521 1523 1524 1525
1521 1521 1518 1514 1515 1515 1504 1498 1494 1490 1487 1485 1483 1481 1477 1474 1473 1469 1466 1464 1464 1465 1467 1469 1471 1474 1477 1479 1480 1482 1484 1489 1492 1494 1496 1499 1502 1504 1506 1507 1508 1508 1509 1510 1513 1515 1517 1518 1521
1525 1521 1513 1511 1514 1514 1498 1487 1484 1482 1484 1485 1483 1479 1476 1471 1468 1465 1461 1459 1458 1459 1460 1463 1465 1467 1470 1473 1475 1478 1481 1483 1486 1489 1491 1494 1496 1498 1500 1500 1501 1502 1503 1504 1506 1508 1509 1511 1514
1521 1518 1515 1517 1512 1504 1500 1480 1482 1483 1484 1483 1480 1477 1472 1468 1463 1459 1456 1454 1454 1454 1456 1458 1459 1461 1464 1466 1470 1473 1476 1477 1480 1483 1486 1488 1490 1492 1493 1494 1495 1496 1496 1498 1499 1502 1503 1504 1505
1517 1519 1519 1518 1516 1510 1506 1496 1480 1483 1479 1481 1478 1473 1469 1465 1460 1455 1451 1449 1449 1449 1450 1451 1453 1454 1457 1460 1464 1465 1468 1471 1475 1478 1479 1481 1484 1486 1487 1488 1488 1488 1490 1491 1491 1495 1495 1498 1498
1518 1521 1519 1517 1517 1520 1505 1511 1476 1484 1487 1488 1482 1475 1470 1465 1460 1452 1448 1445 1443 1444 1444 1445 1445 1447 1450 1454 1457 1461 1463 1467 1471 1473 1474 1476 1478 1480 1481 1481 1482 1483 1483 1485 1487 1489 1490 1491 1492
1521 1518 1512 1514 1518 1513 1494 1503 1482 1496 1496 1489 1484 1476 1471 1464 1456 1450 1444 1439 1438 1438 1439 1440 1441 1443 1445 1448 1452 1455 1458 1462 1465 1467 1469 1471 1473 1475 1476 1476 1477 1478 1478 1479 1482 1483 1485 1487 1489
1521 1519 1509 1508 1512 1493 1496 1504 1492 1496 1495 1492 1486 1479 1471 1463 1454 1444 1437 1433 1433 1434 1434 1435 1436 1438 1441 1443 1446 1450 1454 1456 1459 1462 1464 1466 1468 1469 1471 1472 1473 1473 1473 1474 1476 1477 1480 1482 1485
1515 1517 1516 1509 1494 1489 1495 1490 1489 1495 1495 1491 1485 1479 1470 1461 1451 1443 1434 1429 1428 1428 1429 1431 1432 1434 1437 1438 1442 1446 1449 1452 1454 1457 1459 1460 1462 1464 1466 1466 1467 1468 1469 1469 1469 1471 1474 1478 1481
1518 1518 1518 1518 1506 1502 1484 1494 1493 1494 1493 1489 1484 1479 1471 1461 1451 1443 1434 1430 1428 1426 1427 1429 1430 1432 1434 1436 1440 1443 1445 1447 1449 1451 1454 1456 1458 1459 1461 1460 1462 1463 1464 1464 1466 1467 1471 1473 1478
1519 1519 1513 1512 1498 1486 1476 1490 1493 1496 1492 1489 1483 1479 1473 1465 1454 1446 1438 1433 1431 1430 1429 1428 1429 1430 1432 1435 1437 1440 1441 1442 1443 1446 1448 1450 1452 1453 1455 1454 1456 1457 1460 1461 1463 1465 1468 1470 1474
1515 1513 1513 1510 1502 1487 1479 1484 1496 1495 1491 1486 1481 1478 1474 1469 1461 1454 1445 1438 1435 1432 1433 1430 1432 1432 1434 1436 1438 1439 1439 1435 1435 1440 1441 1446 1445 1447 1451 1454 1454 1455 1457 1459 1460 1463 1465 1467 1469
1505 1505 1501 1498 1494 1493 1489 1482 1488 1488 1487 1483 1480 1479 1476 1471 1466 1460 1454 1447 1442 1440 1437 1436 1435 1434 1436 1439 1433 1439 1440 1437 1436 1437 1439 1443 1445 1448 1450 1452 1453 1453 1454 1457 1458 1460 1462 1462 1463
Wind_Speed
14 13 14 9 5 4 6 4 1 6 7 5 1 3 2 5 3 3 4 4 9 5 13 18 15 14 14 15 14 13 11 10 9 8 8 6 5 5 5 6 8 12 12 13 11 12 9 10 11
16 15 10 5 4 6 5 3 7 4 4 1 3 3 3 4 3 3 2 6 4 6 13 15 17 15 14 13 14 14 12 11 9 9 8 8 7 7 7 8 10 9 5 12 11 11 12 13 12
17 16 9 4 4 6 1 3 5 4 3 2 5 1 0 2 4 6 8 7 1 6 13 15 18 17 16 15 14 14 13 11 10 9 7 8 7 8 9 9 11 11 5 7 10 12 13 12 11
9 7 2 5 8 2 2 6 6 6 3 3 2 5 4 6 6 10 8 5 3 5 11 15 19 18 17 16 15 14 13 12 11 9 7 8 8 9 12 11 13 11 6 5 9 13 11 10 10
11 4 3 4 6 2 3 6 7 5 3 1 2 3 2 2 8 8 6 2 6 5 11 13 18 18 16 15 15 14 13 12 11 10 10 9 9 11 13 12 13 8 7 8 11 12 10 10 9
4 2 4 7 6 4 3 4 4 6 4 2 3 3 2 3 6 5 1 1 6 6 9 11 15 18 17 16 15 15 14 14 13 12 11 12 10 11 12 15 12 7 9 10 11 11 10 8 8
3 3 3 2 3 4 3 1 9 7 8 6 1 3 4 6 2 4 3 1 4 8 9 11 12 16 18 18 17 16 16 15 14 14 14 13 12 12 13 15 13 9 10 12 12 12 10 8 7
3 1 4 4 4 4 3 2 1 4 6 4 3 5 5 6 4 2 3 3 5 8 10 14 14 14 15 18 18 17 16 16 15 15 15 15 13 13 13 15 14 10 10 12 12 12 11 9 8
5 3 4 1 3 4 2 2 1 3 6 5 6 10 6 8 10 9 6 4 7 9 12 14 15 16 15 16 16 17 16 16 16 16 16 16 14 15 16 16 16 12 11 13 14 13 12 11 9
3 4 3 2 1 1 1 3 3 4 6 11 14 16 16 17 17 20 19 14 8 10 12 14 15 18 16 17 18 17 18 17 17 18 16 17 15 15 16 17 17 14 12 14 15 15 14 13 10
2 3 4 2 1 3 4 8 5 7 10 18 16 14 14 15 17 23 24 23 20 14 14 16 17 18 20 19 17 18 18 17 18 16 17 16 18 17 18 18 18 18 16 16 18 18 17 16 12
3 2 2 2 2 3 6 7 10 14 19 14 16 18 20 22 22 21 26 28 27 24 19 16 17 20 21 22 20 20 19 18 18 18 18 18 18 19 18 20 19 19 20 17 15 15 15 17 18
4 4 3 5 6 11 13 19 16 22 23 21 20 19 21 21 21 20 21 25 29 31 27 21 20 21 23 24 23 23 22 20 19 18 17 19 18 18 19 22 21 20 20 20 17 16 16 20 20
3 3 5 5 5 8 8 12 4 8 7 10 11 14 17 19 20 18 19 23 24 28 32 28 25 23 24 26 26 25 24 22 21 21 19 19 20 21 20 19 20 21 22 24 21 21 18 22 22
1 3 3 3 2 3 4 11 11 15 10 13 13 16 18 20 22 25 23 26 24 23 27 33 32 27 27 26 29 29 26 25 23 22 21 20 21 20 18 19 19 20 20 24 23 22 22 23 21
1 1 2 3 2 1 2 8 2 4 11 17 26 26 26 26 26 27 27 27 30 29 28 29 34 33 29 28 29 32 30 26 25 23 24 22 20 19 19 21 20 21 23 24 25 24 23 27 28
1 2 2 4 1 2 5 9 8 15 27 27 27 28 28 28 25 24 26 26 26 27 28 31 32 35 32 28 29 32 33 31 27 28 27 26 22 21 22 23 23 23 28 29 30 28 26 27 28
3 2 3 6 0 8 14 21 17 23 25 27 26 26 26 27 24 23 22 25 29 29 29 31 30 34 31 28 28 33 34 34 31 31 31 32 27 23 25 26 25 27 29 31 32 33 32 29 29
2 2 6 9 7 10 11 18 19 24 24 21 17 18 19 20 20 22 23 23 26 29 29 31 30 32 33 28 27 31 36 35 35 35 32 33 34 30 28 28 27 28 31 32 33 33 35 34 34
0 4 6 9 4 6 15 24 21 12 7 11 14 17 20 24 25 23 20 20 20 21 24 28 30 31 33 30 28 26 31 33 33 35 34 33 33 33 32 30 29 29 29 32 33 34 37 36 38
3 6 4 6 12 12 13 11 2 1 8 10 17 18 19 20 24 23 20 19 20 22 22 25 29 32 32 29 30 26 23 29 33 34 34 34 34 33 33 32 32 31 32 34 35 35 36 40 43
4 2 6 7 9 5 8 7 7 7 9 19 25 24 21 20 20 20 21 20 20 23 23 26 28 36 31 29 26 31 30 27 29 30 33 35 31 29 30 33 33 31 29 31 33 31 33 36 39
2 2 8 11 12 10 5 5 4 10 11 17 25 27 16 16 20 21 21 20 21 21 22 21 21 30 30 30 28 29 31 29 21 23 26 22 24 25 26 26 26 25 26 29 32 31 27 38 39
9 10 9 2 2 4 6 6 2 6 11 12 21 24 23 22 23 24 23 17 18 20 19 17 18 22 23 24 26 27 31 29 29 28 23 23 23 21 21 23 22 25 25 29 30 27 29 30 36
4 4 3 2 3 4 6 6 3 11 12 12 16 21 25 23 22 26 23 19 12 15 19 19 20 23 24 24 26 27 28 28 27 25 25 24 23 22 20 20 21 25 23 29 30 29 31 30 31
4 3 3 4 3 6 3 4 2 10 12 15 15 21 25 24 28 25 14 4 8 16 18 18 17 17 20 21 22 23 25 27 25 24 24 23 24 23 22 20 21 23 19 27 34 30 26 29 30
3 4 2 4 5 4 1 1 4 13 10 17 18 18 24 32 31 26 19 14 9 10 5 10 11 10 14 16 17 18 21 23 27 29 25 25 23 25 25 22 20 19 14 16 18 26 26 29 24
6 1 4 3 3 4 2 1 5 9 11 12 12 17 19 27 30 31 26 19 14 11 9 4 7 8 10 15 17 21 23 26 30 26 24 24 23 21 18 19 19 14 12 11 13 15 14 20 25
4 3 5 3 3 3 4 1 3 6 7 10 9 14 13 13 21 28 34 23 15 13 4 4 2 5 6 7 12 12 7 14 22 21 20 18 17 14 9 8 11 13 13 11 12 13 15 18 20
3 4 4 3 2 3 3 2 5 5 7 8 11 10 9 9 12 15 24 31 33 30 31 29 25 22 19 13 21 18 20 13 17 19 21 18 13 10 11 7 6 9 14 15 12 16 21 24 23
Wind_Direction
156 152 147 144 194 236 222 204 75 157 182 181 197 246 355 348 328 29 359 36 351 193 182 184 194 187 185 187 191 192 195 198 205 196 200 206 199 182 163 154 140 143 157 165 160 168 160 148 142
156 151 144 164 222 206 176 138 191 119 111 218 203 232 226 122 39 351 246 343 359 178 182 184 191 194 193 195 197 198 203 203 210 214 218 210 201 189 168 150 140 144 127 146 174 171 149 131 134
156 150 170 197 222 219 144 160 136 113 61 144 173 186 315 8 335 333 306 317 147 178 188 189 195 198 201 202 201 204 208 211 216 229 218 208 206 195 170 158 161 175 179 171 179 153 137 135 133
147 158 111 228 207 193 72 126 148 144 108 69 32 148 105 42 349 328 316 311 148 193 189 208 197 199 205 207 209 209 211 214 218 221 223 205 205 196 189 175 171 189 207 187 162 146 145 145 143
146 157 193 219 210 137 157 128 158 153 145 166 359 124 123 16 8 338 331 310 147 194 188 203 200 203 208 209 212 217 219 219 222 219 218 211 208 202 204 195 192 204 218 205 163 157 155 149 151
138 168 196 213 169 167 189 174 202 222 204 209 230 234 172 182 359 12 43 186 169 188 193 197 203 208 210 213 214 217 222 225 229 229 226 224 218 211 211 205 207 211 215 203 178 170 167 164 162
165 194 201 206 161 179 150 250 228 248 245 234 279 242 182 200 331 21 34 184 193 201 196 205 209 214 220 221 221 219 220 225 229 233 231 228 224 219 210 201 218 217 212 202 192 184 183 180 179
107 241 185 210 203 134 106 163 282 243 225 273 226 237 203 193 232 3 14 268 226 217 218 210 211 219 223 224 224 226 227 230 229 234 235 231 227 224 220 210 224 229 216 207 205 199 196 195 196
116 217 224 241 205 107 124 183 137 281 269 246 230 248 257 269 280 282 278 260 240 232 225 225 224 214 222 224 229 229 234 235 238 235 235 233 228 225 223 216 223 228 227 218 214 215 212 209 210
183 214 202 16 352 47 289 296 310 277 242 251 254 259 269 283 284 285 279 272 260 240 235 233 231 227 226 226 225 232 237 236 238 237 231 227 223 220 218 220 223 227 231 224 223 223 224 221 222
159 226 150 164 264 322 292 275 255 267 263 253 264 275 275 278 280 275 273 269 262 251 241 236 233 230 228 227 226 229 233 237 237 225 221 220 220 221 222 224 224 222 223 226 225 226 226 226 224
165 199 176 186 202 294 281 289 262 250 251 280 276 276 275 279 279 277 269 265 261 254 246 240 234 231 228 230 230 228 229 235 232 231 225 223 222 220 217 222 221 222 229 225 223 221 224 227 233
201 175 228 241 270 276 277 268 271 268 268 276 275 273 271 273 276 277 275 265 257 250 244 241 240 233 229 228 228 228 232 232 233 229 227 224 220 220 221 225 221 221 230 234 230 224 225 235 239
140 235 267 280 265 261 271 272 316 270 274 277 273 271 272 271 271 273 272 272 260 256 243 240 242 238 235 230 227 230 234 232 231 233 229 225 225 227 228 227 227 225 235 240 237 237 232 239 242
139 266 261 217 201 244 272 265 236 264 280 290 287 284 280 276 270 263 279 267 261 260 253 241 240 240 238 236 231 229 231 228 229 231 231 226 222 223 225 228 228 234 235 246 247 237 241 240 239
208 247 249 156 284 111 235 261 220 289 295 286 295 290 281 278 275 269 273 265 258 264 258 250 240 237 238 235 232 226 225 222 226 224 224 227 224 228 226 234 236 241 241 244 248 242 244 243 244
112 245 266 289 245 251 230 286 276 292 294 291 289 287 283 281 277 273 271 263 255 258 259 252 243 236 233 235 230 225 224 223 223 222 224 223 227 239 244 245 245 243 246 247 246 245 243 243 241
152 228 262 275 318 270 277 273 281 283 287 286 292 292 287 283 283 286 278 263 254 254 257 249 244 236 231 232 231 226 225 225 226 227 228 228 232 250 253 251 251 247 248 246 244 246 246 244 239
94 296 290 281 295 290 278 285 287 287 288 292 300 301 302 295 298 297 290 270 254 250 251 241 241 234 230 228 228 226 226 227 228 231 235 232 239 253 255 252 250 250 247 251 249 247 244 241 237
69 295 297 285 281 287 301 297 301 295 289 317 312 312 308 302 301 295 290 272 256 250 245 239 242 234 231 229 229 231 229 226 230 234 238 242 245 253 254 254 255 252 250 249 248 242 245 245 240
248 268 314 297 319 286 305 288 6 50 321 329 328 320 313 310 309 301 287 272 259 251 244 245 245 244 234 232 232 232 229 230 230 232 237 239 243 247 252 257 256 253 253 248 248 250 243 247 240
300 224 279 303 323 309 357 294 330 346 340 347 337 334 330 325 323 309 291 274 259 254 251 257 253 241 238 233 228 229 224 224 231 233 237 240 245 246 251 257 257 255 249 244 250 247 242 250 246
336 294 288 289 285 307 269 243 285 358 341 336 332 321 328 333 333 322 306 285 262 251 250 256 250 234 238 233 231 231 232 228 227 230 234 240 240 245 251 253 252 247 247 240 248 253 251 240 230
304 303 296 285 273 261 233 217 132 5 333 327 333 344 340 336 331 322 310 288 267 240 241 243 237 234 237 234 226 228 236 231 234 241 238 236 239 243 250 250 254 249 251 246 251 250 250 246 240
239 313 309 262 222 273 159 216 322 356 346 330 338 341 339 341 339 330 320 288 263 248 236 238 237 234 232 229 226 234 235 234 238 243 239 240 240 239 242 253 256 255 250 251 243 241 242 240 233
255 283 305 292 275 310 190 249 72 2 359 345 348 352 354 359 2 357 349 359 272 256 243 241 247 233 228 222 231 236 231 235 237 240 239 240 239 247 252 260 255 251 255 250 248 229 228 231 230
133 215 81 260 234 255 222 124 199 359 355 343 344 352 359 11 3 17 29 59 78 84 174 218 214 206 211 222 224 226 224 227 232 236 241 246 244 248 261 257 249 252 233 248 241 235 249 228 236
225 32 221 198 275 290 191 94 318 326 325 322 343 358 2 15 20 33 39 57 67 66 64 147 155 189 184 199 209 217 230 238 240 240 237 232 239 238 242 214 215 211 208 215 219 216 224 222 228
180 216 209 262 254 294 310 96 213 285 307 309 335 356 2 7 22 37 50 64 67 61 331 264 144 141 155 220 206 209 178 186 217 206 218 199 172 165 166 198 213 202 204 204 205 208 225 241 245
232 234 238 260 160 240 292 251 210 228 255 277 308 345 6 14 25 39 52 61 67 77 77 75 92 105 128 107 129 188 162 136 115 113 119 121 124 130 152 126 125 176 207 208 213 224 235 232 229